Time,TemperatureF,DewpointF,PressureIn,WindDirection,WindDirectionDegrees,WindSpeedMPH,WindSpeedGustMPH,Humidity,HourlyPrecipIn,Conditions,Clouds,dailyrainin,SolarRadiationWatts/m^2,SoftwareType,DateUTC
2013-08-03 00:01:00,73.7,59.9,29.89,North,360,0.0,0.0,62,0.00,,,0.00,0,Wunderground v.1.15,2013-08-03 04:01:00,
2013-08-03 00:03:00,73.7,59.9,29.89,North,360,0.0,0.0,62,0.00,,,0.00,0,Wunderground v.1.15,2013-08-03 04:03:00,
2013-08-03 00:05:00,73.7,59.9,29.89,North,360,0.0,0.0,62,0.00,,,0.00,0,Wunderground v.1.15,2013-08-03 04:05:00,
2013-08-03 00:07:00,73.5,59.7,29.89,North,360,0.0,0.0,62,0.00,,,0.00,0,Wunderground v.1.15,2013-08-03 04:07:00,
2013-08-03 00:11:00,73.5,60.1,29.89,North,360,0.0,0.0,63,0.00,,,0.00,0,Wunderground v.1.15,2013-08-03 04:11:00,
2013-08-03 00:17:00,73.3,59.9,29.89,North,360,0.0,0.0,63,0.00,,,0.00,0,Wunderground v.1.15,2013-08-03 04:17:00,
2013-08-03 00:25:00,73.2,59.8,29.89,North,360,0.0,0.0,63,0.00,,,0.00,0,Wunderground v.1.15,2013-08-03 04:25:00,
2013-08-03 00:31:00,73.0,59.7,29.89,North,360,0.0,0.0,63,0.00,,,0.00,0,Wunderground v.1.15,2013-08-03 04:31:00,
2013-08-03 00:37:00,72.8,59.5,29.89,North,360,0.0,0.0,63,0.00,,,0.00,0,Wunderground v.1.15,2013-08-03 04:37:00,
2013-08-03 00:47:00,72.7,59.8,29.88,North,360,0.0,0.0,64,0.00,,,0.00,0,Wunderground v.1.15,2013-08-03 04:47:00,
2013-08-03 00:53:00,72.5,59.6,29.88,North,360,0.0,0.0,64,0.00,,,0.00,0,Wunderground v.1.15,2013-08-03 04:53:00,
2013-08-03 00:58:00,72.3,59.9,29.88,North,360,0.0,0.0,65,0.00,,,0.00,0,Wunderground v.1.15,2013-08-03 04:58:00,
2013-08-03 01:05:00,72.1,59.7,29.88,North,360,0.0,0.0,65,0.00,,,0.00,0,Wunderground v.1.15,2013-08-03 05:05:00,
2013-08-03 01:11:00,71.8,59.4,29.88,North,360,0.0,0.0,65,0.00,,,0.00,0,Wunderground v.1.15,2013-08-03 05:11:00,
2013-08-03 01:18:00,71.6,59.2,29.88,North,360,0.0,0.0,65,0.00,,,0.00,0,Wunderground v.1.15,2013-08-03 05:18:00,
2013-08-03 01:25:00,71.5,59.1,29.88,North,360,0.0,0.0,65,0.00,,,0.00,0,Wunderground v.1.15,2013-08-03 05:25:00,
2013-08-03 01:31:00,71.3,58.9,29.88,North,360,0.0,0.0,65,0.00,,,0.00,0,Wunderground v.1.15,2013-08-03 05:31:00,
2013-08-03 01:37:00,71.1,59.2,29.88,North,360,0.0,0.0,66,0.00,,,0.00,0,Wunderground v.1.15,2013-08-03 05:37:00,
2013-08-03 01:47:00,70.8,58.4,29.88,North,360,0.0,0.0,65,0.00,,,0.00,0,Wunderground v.1.15,2013-08-03 05:47:00,
2013-08-03 01:54:00,70.6,58.3,29.88,North,360,0.0,0.0,65,0.00,,,0.00,0,Wunderground v.1.15,2013-08-03 05:54:00,
2013-08-03 01:59:00,70.6,58.3,29.88,North,360,0.0,0.0,65,0.00,,,0.00,0,Wunderground v.1.15,2013-08-03 05:59:00,
2013-08-03 02:05:00,70.4,58.1,29.87,North,360,0.0,0.0,65,0.00,,,0.00,0,Wunderground v.1.15,2013-08-03 06:05:00,
2013-08-03 02:11:00,70.4,58.5,29.87,North,360,0.0,0.0,66,0.00,,,0.00,0,Wunderground v.1.15,2013-08-03 06:11:00,
2013-08-03 02:17:00,70.3,58.4,29.86,North,360,0.0,0.0,66,0.00,,,0.00,0,Wunderground v.1.15,2013-08-03 06:17:00,
2013-08-03 02:25:00,70.1,58.6,29.86,North,360,0.0,0.0,67,0.00,,,0.00,0,Wunderground v.1.15,2013-08-03 06:25:00,
2013-08-03 02:31:00,69.9,58.9,29.86,North,360,0.0,0.0,68,0.00,,,0.00,0,Wunderground v.1.15,2013-08-03 06:31:00,
2013-08-03 02:37:00,69.6,59.0,29.86,North,360,0.0,0.0,69,0.00,,,0.00,0,Wunderground v.1.15,2013-08-03 06:37:00,
2013-08-03 02:44:00,69.4,59.2,29.86,North,360,0.0,0.0,70,0.00,,,0.00,0,Wunderground v.1.15,2013-08-03 06:44:00,
2013-08-03 02:49:00,69.1,58.9,29.86,North,360,0.0,0.0,70,0.00,,,0.00,0,Wunderground v.1.15,2013-08-03 06:49:00,
2013-08-03 02:55:00,68.9,59.1,29.86,North,360,0.0,0.0,71,0.00,,,0.00,0,Wunderground v.1.15,2013-08-03 06:55:00,
2013-08-03 03:01:00,68.8,59.0,29.86,North,360,0.0,0.0,71,0.00,,,0.00,0,Wunderground v.1.15,2013-08-03 07:01:00,
2013-08-03 03:07:00,68.8,59.4,29.86,North,360,0.0,0.0,72,0.00,,,0.00,0,Wunderground v.1.15,2013-08-03 07:07:00,
2013-08-03 03:13:00,68.6,59.6,29.86,North,360,0.0,0.0,73,0.00,,,0.00,0,Wunderground v.1.15,2013-08-03 07:13:00,
2013-08-03 03:21:00,68.4,59.8,29.85,North,360,0.0,0.0,74,0.00,,,0.00,0,Wunderground v.1.15,2013-08-03 07:21:00,
2013-08-03 03:26:00,68.3,59.3,29.85,North,360,0.0,0.0,73,0.00,,,0.00,0,Wunderground v.1.15,2013-08-03 07:26:00,
2013-08-03 03:33:00,68.3,58.9,29.85,North,360,0.0,0.0,72,0.00,,,0.00,0,Wunderground v.1.15,2013-08-03 07:33:00,
2013-08-03 03:40:00,68.4,58.6,29.85,North,360,0.0,0.0,71,0.00,,,0.00,0,Wunderground v.1.15,2013-08-03 07:40:00,
2013-08-03 03:46:00,68.4,58.2,29.85,North,360,0.0,0.0,70,0.00,,,0.00,0,Wunderground v.1.15,2013-08-03 07:46:00,
2013-08-03 03:53:00,68.6,58.0,29.85,North,360,0.0,0.0,69,0.00,,,0.00,0,Wunderground v.1.15,2013-08-03 07:53:00,
2013-08-03 03:58:00,68.8,58.2,29.85,North,360,0.0,0.0,69,0.00,,,0.00,0,Wunderground v.1.15,2013-08-03 07:58:00,
2013-08-03 04:04:00,68.9,57.9,29.85,North,360,0.0,0.0,68,0.00,,,0.00,0,Wunderground v.1.15,2013-08-03 08:04:00,
2013-08-03 04:09:00,69.1,57.7,29.85,North,360,0.0,0.0,67,0.00,,,0.00,0,Wunderground v.1.15,2013-08-03 08:09:00,
2013-08-03 04:15:00,69.3,57.5,29.85,North,360,0.0,0.0,66,0.00,,,0.00,0,Wunderground v.1.15,2013-08-03 08:15:00,
2013-08-03 04:21:00,69.3,57.0,29.85,North,360,0.0,0.0,65,0.00,,,0.00,0,Wunderground v.1.15,2013-08-03 08:21:00,
2013-08-03 04:27:00,69.4,57.1,29.85,North,360,0.0,0.0,65,0.00,,,0.00,0,Wunderground v.1.15,2013-08-03 08:27:00,
2013-08-03 04:36:00,69.6,57.3,29.85,North,360,0.0,0.0,65,0.00,,,0.00,0,Wunderground v.1.15,2013-08-03 08:36:00,
2013-08-03 04:41:00,69.6,56.9,29.85,North,360,0.0,0.0,64,0.00,,,0.00,0,Wunderground v.1.15,2013-08-03 08:41:00,
2013-08-03 04:47:00,69.8,57.1,29.86,North,360,0.0,0.0,64,0.00,,,0.00,0,Wunderground v.1.15,2013-08-03 08:47:00,
2013-08-03 04:54:00,69.9,57.6,29.86,North,360,0.0,0.0,65,0.00,,,0.00,0,Wunderground v.1.15,2013-08-03 08:54:00,
2013-08-03 04:59:00,69.9,57.6,29.86,North,360,0.0,0.0,65,0.00,,,0.00,0,Wunderground v.1.15,2013-08-03 08:59:00,
2013-08-03 05:05:00,69.9,58.0,29.86,North,360,0.0,0.0,66,0.00,,,0.00,0,Wunderground v.1.15,2013-08-03 09:05:00,
2013-08-03 05:15:00,69.9,58.0,29.86,North,360,0.0,0.0,66,0.00,,,0.00,0,Wunderground v.1.15,2013-08-03 09:15:00,
2013-08-03 05:21:00,69.9,59.3,29.86,North,360,0.0,0.0,69,0.00,,,0.00,0,Wunderground v.1.15,2013-08-03 09:21:00,
2013-08-03 05:27:00,69.8,58.8,29.86,North,360,0.0,0.0,68,0.00,,,0.00,0,Wunderground v.1.15,2013-08-03 09:27:00,
2013-08-03 05:34:00,69.8,58.8,29.86,North,360,0.0,0.0,68,0.00,,,0.00,0,Wunderground v.1.15,2013-08-03 09:34:00,
2013-08-03 05:41:00,69.6,59.0,29.86,North,360,0.0,0.0,69,0.00,,,0.00,0,Wunderground v.1.15,2013-08-03 09:41:00,
2013-08-03 05:47:00,69.4,59.2,29.87,North,360,0.0,0.0,70,0.00,,,0.00,0,Wunderground v.1.15,2013-08-03 09:47:00,
2013-08-03 05:53:00,69.4,59.6,29.87,North,360,0.0,0.0,71,0.00,,,0.00,0,Wunderground v.1.15,2013-08-03 09:53:00,
2013-08-03 06:01:00,69.3,59.5,29.88,North,360,0.0,0.0,71,0.00,,,0.00,0,Wunderground v.1.15,2013-08-03 10:01:00,
2013-08-03 06:07:00,69.1,59.3,29.88,North,360,0.0,0.0,71,0.00,,,0.00,0,Wunderground v.1.15,2013-08-03 10:07:00,
2013-08-03 06:13:00,69.1,59.7,29.88,North,360,0.0,0.0,72,0.00,,,0.00,0,Wunderground v.1.15,2013-08-03 10:13:00,
2013-08-03 06:21:00,68.9,59.5,29.88,North,360,0.0,0.0,72,0.00,,,0.00,0,Wunderground v.1.15,2013-08-03 10:21:00,
2013-08-03 06:27:00,68.9,59.9,29.88,North,360,0.0,0.0,73,0.00,,,0.00,0,Wunderground v.1.15,2013-08-03 10:27:00,
2013-08-03 06:35:00,68.9,60.6,29.88,North,360,0.0,0.0,75,0.00,,,0.00,0,Wunderground v.1.15,2013-08-03 10:35:00,
2013-08-03 06:40:00,68.8,60.6,29.88,North,360,0.0,0.0,75,0.00,,,0.00,7,Wunderground v.1.15,2013-08-03 10:40:00,
2013-08-03 06:46:00,68.8,60.9,29.88,North,360,0.0,0.0,76,0.00,,,0.00,11,Wunderground v.1.15,2013-08-03 10:46:00,
2013-08-03 06:53:00,68.6,61.5,29.88,North,360,0.0,0.0,78,0.00,,,0.00,7,Wunderground v.1.15,2013-08-03 10:53:00,
2013-08-03 06:58:00,68.4,61.3,29.88,North,360,0.0,0.0,78,0.00,,,0.00,9,Wunderground v.1.15,2013-08-03 10:58:00,
2013-08-03 07:05:00,68.3,61.2,29.87,North,360,0.0,0.0,78,0.00,,,0.00,0,Wunderground v.1.15,2013-08-03 11:05:00,
2013-08-03 07:11:00,68.3,61.5,29.87,North,360,0.0,2.0,79,0.00,,,0.00,11,Wunderground v.1.15,2013-08-03 11:11:00,
2013-08-03 07:17:00,68.3,61.9,29.88,North,360,1.0,2.0,80,0.00,,,0.00,21,Wunderground v.1.15,2013-08-03 11:17:00,
2013-08-03 07:24:00,68.1,62.0,29.88,North,360,1.0,1.0,81,0.00,,,0.00,35,Wunderground v.1.15,2013-08-03 11:24:00,
2013-08-03 07:29:00,68.1,62.4,29.88,North,360,0.0,1.0,82,0.00,,,0.00,32,Wunderground v.1.15,2013-08-03 11:29:00,
2013-08-03 07:35:00,68.1,62.4,29.89,North,360,0.0,0.0,82,0.00,,,0.00,39,Wunderground v.1.15,2013-08-03 11:35:00,
2013-08-03 07:41:00,67.9,62.5,29.89,North,360,0.0,0.0,83,0.00,,,0.01,39,Wunderground v.1.15,2013-08-03 11:41:00,
2013-08-03 07:47:00,67.9,62.5,29.88,North,360,0.0,0.0,83,0.00,,,0.01,33,Wunderground v.1.15,2013-08-03 11:47:00,
2013-08-03 07:55:00,67.9,63.2,29.88,North,360,0.0,0.0,85,0.00,,,0.01,35,Wunderground v.1.15,2013-08-03 11:55:00,
2013-08-03 08:01:00,67.9,63.2,29.88,North,360,0.0,0.0,85,0.00,,,0.01,46,Wunderground v.1.15,2013-08-03 12:01:00,
2013-08-03 08:07:00,67.9,63.2,29.88,North,360,0.0,0.0,85,0.00,,,0.01,44,Wunderground v.1.15,2013-08-03 12:07:00,
2013-08-03 08:14:00,67.9,63.6,29.88,North,360,0.0,0.0,86,0.00,,,0.01,42,Wunderground v.1.15,2013-08-03 12:14:00,
2013-08-03 08:25:00,67.8,63.5,29.87,North,360,0.0,0.0,86,0.00,,,0.01,42,Wunderground v.1.15,2013-08-03 12:25:00,
2013-08-03 08:31:00,67.8,63.5,29.88,North,360,0.0,0.0,86,0.00,,,0.01,42,Wunderground v.1.15,2013-08-03 12:31:00,
2013-08-03 08:37:00,67.8,63.5,29.88,North,360,0.0,0.0,86,0.00,,,0.01,47,Wunderground v.1.15,2013-08-03 12:37:00,
2013-08-03 08:44:00,67.8,63.5,29.88,North,360,0.0,1.0,86,0.00,,,0.01,60,Wunderground v.1.15,2013-08-03 12:44:00,
2013-08-03 08:51:00,67.6,63.3,29.88,North,360,0.0,0.0,86,0.00,,,0.01,44,Wunderground v.1.15,2013-08-03 12:51:00,
2013-08-03 08:57:00,67.8,63.5,29.88,North,360,0.0,0.0,86,0.00,,,0.01,40,Wunderground v.1.15,2013-08-03 12:57:00,
2013-08-03 09:05:00,67.6,63.3,29.88,North,360,0.0,0.0,86,0.00,,,0.01,42,Wunderground v.1.15,2013-08-03 13:05:00,
2013-08-03 09:11:00,67.6,63.3,29.88,North,360,0.0,0.0,86,0.00,,,0.01,47,Wunderground v.1.15,2013-08-03 13:11:00,
2013-08-03 09:16:00,67.4,62.7,29.88,North,360,0.0,0.0,85,0.00,,,0.02,86,Wunderground v.1.15,2013-08-03 13:16:00,
2013-08-03 09:25:00,67.6,63.3,29.88,North,360,0.0,0.0,86,0.00,,,0.02,58,Wunderground v.1.15,2013-08-03 13:25:00,
2013-08-03 09:31:00,67.8,63.5,29.88,North,360,0.0,0.0,86,0.00,,,0.02,49,Wunderground v.1.15,2013-08-03 13:31:00,
2013-08-03 09:36:00,67.8,63.5,29.88,North,360,0.0,0.0,86,0.00,,,0.02,49,Wunderground v.1.15,2013-08-03 13:36:00,
2013-08-03 09:44:00,67.8,63.1,29.88,North,360,0.0,0.0,85,0.00,,,0.02,56,Wunderground v.1.15,2013-08-03 13:44:00,
2013-08-03 09:50:00,67.8,63.1,29.88,North,360,0.0,1.0,85,0.00,,,0.02,74,Wunderground v.1.15,2013-08-03 13:50:00,
2013-08-03 09:56:00,67.8,63.1,29.88,North,360,0.0,1.0,85,0.00,,,0.02,81,Wunderground v.1.15,2013-08-03 13:56:00,
2013-08-03 10:02:00,67.8,63.1,29.88,North,360,0.0,1.0,85,0.00,,,0.02,72,Wunderground v.1.15,2013-08-03 14:02:00,
2013-08-03 10:07:00,67.8,63.1,29.88,North,360,0.0,3.0,85,0.00,,,0.02,69,Wunderground v.1.15,2013-08-03 14:07:00,
2013-08-03 10:16:00,67.8,63.5,29.88,North,360,1.0,1.0,86,0.00,,,0.02,69,Wunderground v.1.15,2013-08-03 14:16:00,
2013-08-03 10:26:00,67.6,63.3,29.88,North,360,1.0,1.0,86,0.00,,,0.03,90,Wunderground v.1.15,2013-08-03 14:26:00,
2013-08-03 10:36:00,67.4,63.4,29.88,North,360,0.0,1.0,87,0.00,,,0.03,111,Wunderground v.1.15,2013-08-03 14:36:00,
2013-08-03 10:45:00,67.4,63.4,29.89,NNE,29,1.0,1.0,87,0.00,,,0.04,144,Wunderground v.1.15,2013-08-03 14:45:00,
2013-08-03 10:55:00,67.8,64.1,29.89,North,360,0.0,0.0,88,0.00,,,0.04,160,Wunderground v.1.15,2013-08-03 14:55:00,
2013-08-03 11:06:00,68.4,65.0,29.88,North,360,0.0,0.0,89,0.00,,,0.04,188,Wunderground v.1.15,2013-08-03 15:06:00,
2013-08-03 11:16:00,68.6,65.2,29.88,North,360,0.0,0.0,89,0.00,,,0.04,262,Wunderground v.1.15,2013-08-03 15:16:00,
2013-08-03 11:25:00,69.3,65.9,29.88,North,360,0.0,0.0,89,0.00,,,0.04,313,Wunderground v.1.15,2013-08-03 15:25:00,
2013-08-03 11:35:00,69.6,65.9,29.88,North,360,1.0,4.0,88,0.00,,,0.04,232,Wunderground v.1.15,2013-08-03 15:35:00,
2013-08-03 11:49:00,69.6,65.2,29.89,North,360,1.0,1.0,86,0.00,,,0.04,149,Wunderground v.1.15,2013-08-03 15:49:00,
2013-08-03 11:59:00,69.6,65.2,29.89,North,360,2.0,2.0,86,0.00,,,0.04,149,Wunderground v.1.15,2013-08-03 15:59:00,
2013-08-03 12:09:00,69.9,65.9,29.88,North,360,0.0,0.0,87,0.00,,,0.04,186,Wunderground v.1.15,2013-08-03 16:09:00,
2013-08-03 12:19:00,69.8,65.8,29.88,North,360,1.0,1.0,87,0.00,,,0.04,146,Wunderground v.1.15,2013-08-03 16:19:00,
2013-08-03 12:30:00,69.9,65.9,29.88,North,360,0.0,0.0,87,0.00,,,0.05,128,Wunderground v.1.15,2013-08-03 16:30:00,
2013-08-03 12:39:00,70.1,66.0,29.88,North,360,0.0,0.0,87,0.00,,,0.05,192,Wunderground v.1.15,2013-08-03 16:39:00,
2013-08-03 12:49:00,70.4,66.7,29.87,North,360,0.0,0.0,88,0.00,,,0.05,232,Wunderground v.1.15,2013-08-03 16:49:00,
2013-08-03 13:08:00,70.8,67.1,29.88,North,360,0.0,0.0,88,0.00,,,0.05,278,Wunderground v.1.15,2013-08-03 17:08:00,
2013-08-03 13:17:00,71.1,67.0,29.88,North,360,0.0,0.0,87,0.00,,,0.05,160,Wunderground v.1.15,2013-08-03 17:17:00,
2013-08-03 13:28:00,71.3,66.9,29.88,North,360,0.0,0.0,86,0.00,,,0.05,132,Wunderground v.1.15,2013-08-03 17:28:00,
2013-08-03 13:38:00,71.5,66.8,29.86,North,360,0.0,0.0,85,0.00,,,0.05,353,Wunderground v.1.15,2013-08-03 17:38:00,
2013-08-03 13:47:00,71.8,66.7,29.86,North,360,0.0,0.0,84,0.00,,,0.05,330,Wunderground v.1.15,2013-08-03 17:47:00,
2013-08-03 13:57:00,72.7,66.5,29.86,North,360,0.0,0.0,81,0.00,,,0.05,285,Wunderground v.1.15,2013-08-03 17:57:00,
2013-08-03 14:04:00,72.8,66.3,29.87,North,360,1.0,4.0,80,0.00,,,0.05,359,Wunderground v.1.15,2013-08-03 18:04:00,
2013-08-03 14:11:00,74.0,66.0,29.87,North,360,2.0,2.0,76,0.00,,,0.05,798,Wunderground v.1.15,2013-08-03 18:11:00,
2013-08-03 14:17:00,74.4,65.2,29.86,North,360,2.0,5.0,73,0.00,,,0.05,789,Wunderground v.1.15,2013-08-03 18:17:00,
2013-08-03 14:25:00,75.3,66.0,29.86,North,360,2.0,2.0,73,0.00,,,0.05,752,Wunderground v.1.15,2013-08-03 18:25:00,
2013-08-03 14:31:00,75.8,65.3,29.86,North,360,1.0,2.0,70,0.00,,,0.05,573,Wunderground v.1.15,2013-08-03 18:31:00,
2013-08-03 14:37:00,76.0,64.7,29.86,North,360,2.0,4.0,68,0.00,,,0.05,809,Wunderground v.1.15,2013-08-03 18:37:00,
2013-08-03 14:47:00,76.5,64.7,29.86,North,360,3.0,4.0,67,0.00,,,0.05,828,Wunderground v.1.15,2013-08-03 18:47:00,
2013-08-03 14:53:00,77.2,65.0,29.86,North,360,3.0,5.0,66,0.00,,,0.05,795,Wunderground v.1.15,2013-08-03 18:53:00,
2013-08-03 14:58:00,77.0,64.3,29.86,North,360,2.0,2.0,65,0.00,,,0.05,805,Wunderground v.1.15,2013-08-03 18:58:00,
2013-08-03 15:05:00,77.4,64.7,29.86,North,360,2.0,5.0,65,0.00,,,0.05,789,Wunderground v.1.15,2013-08-03 19:05:00,
2013-08-03 15:11:00,77.7,64.1,29.86,North,360,3.0,3.0,63,0.00,,,0.05,155,Wunderground v.1.15,2013-08-03 19:11:00,
2013-08-03 15:17:00,77.4,64.7,29.85,North,360,3.0,3.0,65,0.00,,,0.05,756,Wunderground v.1.15,2013-08-03 19:17:00,
2013-08-03 15:25:00,77.7,64.5,29.85,North,360,3.0,4.0,64,0.00,,,0.05,698,Wunderground v.1.15,2013-08-03 19:25:00,
2013-08-03 15:30:00,77.6,63.5,29.85,North,360,3.0,3.0,62,0.00,,,0.05,167,Wunderground v.1.15,2013-08-03 19:30:00,
2013-08-03 15:36:00,77.4,63.4,29.85,North,360,2.0,4.0,62,0.00,,,0.05,250,Wunderground v.1.15,2013-08-03 19:36:00,
2013-08-03 15:45:00,77.0,62.5,29.84,North,360,3.0,4.0,61,0.00,,,0.05,190,Wunderground v.1.15,2013-08-03 19:45:00,
2013-08-03 15:50:00,76.8,63.2,29.84,NNE,31,3.0,4.0,63,0.00,,,0.05,251,Wunderground v.1.15,2013-08-03 19:50:00,
2013-08-03 15:56:00,77.2,63.2,29.84,North,360,3.0,4.0,62,0.00,,,0.05,659,Wunderground v.1.15,2013-08-03 19:56:00,
2013-08-03 16:02:00,77.7,63.6,29.83,North,360,3.0,5.0,62,0.00,,,0.05,642,Wunderground v.1.15,2013-08-03 20:02:00,
2013-08-03 16:08:00,78.1,62.6,29.83,North,360,3.0,5.0,59,0.00,,,0.05,570,Wunderground v.1.15,2013-08-03 20:08:00,
2013-08-03 16:15:00,78.1,63.1,29.83,North,360,4.0,4.0,60,0.00,,,0.05,589,Wunderground v.1.15,2013-08-03 20:15:00,
2013-08-03 16:25:00,78.1,63.1,29.83,NNE,30,3.0,7.0,60,0.00,,,0.05,545,Wunderground v.1.15,2013-08-03 20:25:00,
2013-08-03 16:31:00,78.1,63.1,29.83,North,360,3.0,3.0,60,0.00,,,0.05,232,Wunderground v.1.15,2013-08-03 20:31:00,
2013-08-03 16:37:00,78.1,63.1,29.83,North,360,2.0,5.0,60,0.00,,,0.05,587,Wunderground v.1.15,2013-08-03 20:37:00,
2013-08-03 16:44:00,78.3,63.3,29.83,North,360,3.0,3.0,60,0.00,,,0.05,494,Wunderground v.1.15,2013-08-03 20:44:00,
2013-08-03 16:51:00,78.1,63.1,29.82,NNE,32,3.0,3.0,60,0.00,,,0.05,478,Wunderground v.1.15,2013-08-03 20:51:00,
2013-08-03 16:57:00,78.1,63.1,29.82,North,360,3.0,3.0,60,0.00,,,0.05,457,Wunderground v.1.15,2013-08-03 20:57:00,
2013-08-03 17:05:00,78.5,63.5,29.82,North,360,3.0,3.0,60,0.00,,,0.05,427,Wunderground v.1.15,2013-08-03 21:05:00,
2013-08-03 17:11:00,78.5,63.5,29.82,North,360,2.0,3.0,60,0.00,,,0.05,413,Wunderground v.1.15,2013-08-03 21:11:00,
2013-08-03 17:17:00,78.6,63.6,29.83,North,360,2.0,3.0,60,0.00,,,0.05,404,Wunderground v.1.15,2013-08-03 21:17:00,
2013-08-03 17:23:00,78.6,63.1,29.83,North,360,2.0,4.0,59,0.00,,,0.05,388,Wunderground v.1.15,2013-08-03 21:23:00,
2013-08-03 17:29:00,78.8,62.8,29.83,North,360,2.0,4.0,58,0.00,,,0.05,383,Wunderground v.1.15,2013-08-03 21:29:00,
2013-08-03 17:35:00,78.5,63.0,29.83,North,360,2.0,5.0,59,0.00,,,0.05,156,Wunderground v.1.15,2013-08-03 21:35:00,
2013-08-03 17:41:00,78.1,63.1,29.83,NNE,30,3.0,3.0,60,0.00,,,0.05,105,Wunderground v.1.15,2013-08-03 21:41:00,
2013-08-03 17:47:00,77.7,63.6,29.84,North,360,3.0,3.0,62,0.00,,,0.05,114,Wunderground v.1.15,2013-08-03 21:47:00,
2013-08-03 17:53:00,77.4,63.4,29.84,North,360,4.0,4.0,62,0.00,,,0.05,104,Wunderground v.1.15,2013-08-03 21:53:00,
2013-08-03 17:59:00,77.2,63.2,29.84,North,360,5.0,5.0,62,0.00,,,0.05,90,Wunderground v.1.15,2013-08-03 21:59:00,
2013-08-03 18:05:00,77.2,63.2,29.84,North,360,4.0,5.0,62,0.00,,,0.05,67,Wunderground v.1.15,2013-08-03 22:05:00,
2013-08-03 18:10:00,77.0,63.0,29.84,North,360,3.0,5.0,62,0.00,,,0.05,72,Wunderground v.1.15,2013-08-03 22:10:00,
2013-08-03 18:16:00,76.8,63.2,29.84,North,360,3.0,5.0,63,0.00,,,0.05,53,Wunderground v.1.15,2013-08-03 22:16:00,
2013-08-03 18:23:00,76.8,63.2,29.84,North,360,2.0,4.0,63,0.00,,,0.05,35,Wunderground v.1.15,2013-08-03 22:23:00,
2013-08-03 18:31:00,76.7,63.6,29.85,North,360,2.0,2.0,64,0.00,,,0.05,28,Wunderground v.1.15,2013-08-03 22:31:00,
2013-08-03 18:36:00,76.5,63.4,29.85,North,360,2.0,4.0,64,0.00,,,0.05,28,Wunderground v.1.15,2013-08-03 22:36:00,
2013-08-03 18:44:00,76.5,63.9,29.85,North,360,1.0,2.0,65,0.00,,,0.05,40,Wunderground v.1.15,2013-08-03 22:44:00,
2013-08-03 18:50:00,76.5,63.4,29.84,North,360,2.0,2.0,64,0.00,,,0.05,44,Wunderground v.1.15,2013-08-03 22:50:00,
2013-08-03 18:56:00,76.5,63.9,29.84,North,360,2.0,3.0,65,0.00,,,0.05,56,Wunderground v.1.15,2013-08-03 22:56:00,
2013-08-03 19:01:00,76.5,64.3,29.84,North,360,1.0,3.0,66,0.00,,,0.05,84,Wunderground v.1.15,2013-08-03 23:01:00,
2013-08-03 19:07:00,76.7,64.5,29.84,NNE,29,1.0,3.0,66,0.00,,,0.05,76,Wunderground v.1.15,2013-08-03 23:07:00,
2013-08-03 19:14:00,76.7,64.5,29.84,North,360,2.0,2.0,66,0.00,,,0.05,35,Wunderground v.1.15,2013-08-03 23:14:00,
2013-08-03 19:19:00,76.5,64.7,29.83,North,360,1.0,2.0,67,0.00,,,0.05,23,Wunderground v.1.15,2013-08-03 23:19:00,
2013-08-03 19:25:00,76.3,64.5,29.83,North,360,1.0,5.0,67,0.00,,,0.05,16,Wunderground v.1.15,2013-08-03 23:25:00,
2013-08-03 19:31:00,76.1,64.3,29.84,North,360,1.0,1.0,67,0.00,,,0.05,11,Wunderground v.1.15,2013-08-03 23:31:00,
2013-08-03 19:37:00,76.0,64.7,29.84,North,360,0.0,1.0,68,0.00,,,0.05,9,Wunderground v.1.15,2013-08-03 23:37:00,
2013-08-03 19:44:00,75.6,64.7,29.84,North,360,1.0,2.0,69,0.00,,,0.05,11,Wunderground v.1.15,2013-08-03 23:44:00,
2013-08-03 19:49:00,75.4,64.5,29.84,North,360,1.0,2.0,69,0.00,,,0.05,7,Wunderground v.1.15,2013-08-03 23:49:00,
2013-08-03 19:55:00,75.3,64.8,29.84,North,360,1.0,1.0,70,0.00,,,0.05,7,Wunderground v.1.15,2013-08-03 23:55:00,
2013-08-03 20:01:00,74.9,64.9,29.84,North,360,1.0,3.0,71,0.00,,,0.05,5,Wunderground v.1.15,2013-08-04 00:01:00,
2013-08-03 20:07:00,74.7,64.7,29.84,North,360,1.0,3.0,71,0.00,,,0.05,0,Wunderground v.1.15,2013-08-04 00:07:00,
2013-08-03 20:15:00,74.4,64.8,29.85,North,360,1.0,3.0,72,0.00,,,0.05,0,Wunderground v.1.15,2013-08-04 00:15:00,
2013-08-03 20:21:00,74.4,65.2,29.85,North,360,1.0,1.0,73,0.00,,,0.05,0,Wunderground v.1.15,2013-08-04 00:21:00,
2013-08-03 20:27:00,74.2,65.0,29.85,North,360,0.0,1.0,73,0.00,,,0.05,0,Wunderground v.1.15,2013-08-04 00:27:00,
2013-08-03 20:34:00,74.0,65.2,29.85,North,360,0.0,1.0,74,0.00,,,0.05,0,Wunderground v.1.15,2013-08-04 00:34:00,
2013-08-03 20:41:00,73.9,65.5,29.85,North,360,0.0,0.0,75,0.00,,,0.05,0,Wunderground v.1.15,2013-08-04 00:41:00,
2013-08-03 20:46:00,73.9,65.5,29.85,North,360,0.0,2.0,75,0.00,,,0.05,0,Wunderground v.1.15,2013-08-04 00:46:00,
2013-08-03 20:55:00,73.7,65.3,29.85,North,360,1.0,1.0,75,0.00,,,0.05,0,Wunderground v.1.15,2013-08-04 00:55:00,
2013-08-03 21:00:00,73.5,65.5,29.85,North,360,1.0,1.0,76,0.00,,,0.05,0,Wunderground v.1.15,2013-08-04 01:00:00,
2013-08-03 21:06:00,73.5,65.5,29.85,North,360,0.0,3.0,76,0.00,,,0.05,0,Wunderground v.1.15,2013-08-04 01:06:00,
2013-08-03 21:15:00,73.3,65.3,29.86,North,360,1.0,1.0,76,0.00,,,0.05,0,Wunderground v.1.15,2013-08-04 01:15:00,
2013-08-03 21:21:00,73.3,65.3,29.86,North,360,1.0,1.0,76,0.00,,,0.05,0,Wunderground v.1.15,2013-08-04 01:21:00,
2013-08-03 21:26:00,73.3,65.3,29.86,North,360,1.0,2.0,76,0.00,,,0.05,0,Wunderground v.1.15,2013-08-04 01:26:00,
2013-08-03 21:33:00,73.3,65.3,29.86,North,360,0.0,0.0,76,0.00,,,0.05,0,Wunderground v.1.15,2013-08-04 01:33:00,
2013-08-03 21:38:00,73.3,65.3,29.86,North,360,0.0,1.0,76,0.00,,,0.05,0,Wunderground v.1.15,2013-08-04 01:38:00,
2013-08-03 21:44:00,73.2,65.2,29.86,North,360,0.0,0.0,76,0.00,,,0.05,0,Wunderground v.1.15,2013-08-04 01:44:00,
2013-08-03 21:50:00,73.2,65.2,29.86,North,360,0.0,0.0,76,0.00,,,0.05,0,Wunderground v.1.15,2013-08-04 01:50:00,
2013-08-03 21:56:00,73.2,65.6,29.86,North,360,0.0,0.0,77,0.00,,,0.05,0,Wunderground v.1.15,2013-08-04 01:56:00,
2013-08-03 22:02:00,73.0,65.4,29.86,North,360,0.0,0.0,77,0.00,,,0.05,0,Wunderground v.1.15,2013-08-04 02:02:00,
2013-08-03 22:07:00,72.7,65.1,29.86,North,360,0.0,0.0,77,0.00,,,0.05,0,Wunderground v.1.15,2013-08-04 02:07:00,
2013-08-03 22:15:00,72.5,65.2,29.86,North,360,0.0,0.0,78,0.00,,,0.05,0,Wunderground v.1.15,2013-08-04 02:15:00,
2013-08-03 22:21:00,72.3,65.4,29.86,North,360,0.0,0.0,79,0.00,,,0.05,0,Wunderground v.1.15,2013-08-04 02:21:00,
2013-08-03 22:27:00,72.1,65.2,29.86,North,360,0.0,0.0,79,0.00,,,0.05,0,Wunderground v.1.15,2013-08-04 02:27:00,
2013-08-03 22:34:00,72.0,65.1,29.86,North,360,0.0,0.0,79,0.00,,,0.05,0,Wunderground v.1.15,2013-08-04 02:34:00,
2013-08-03 22:39:00,71.8,65.3,29.86,North,360,0.0,0.0,80,0.00,,,0.05,0,Wunderground v.1.15,2013-08-04 02:39:00,
2013-08-03 22:45:00,71.6,65.1,29.86,North,360,0.0,0.0,80,0.00,,,0.05,0,Wunderground v.1.15,2013-08-04 02:45:00,
2013-08-03 22:51:00,71.5,65.0,29.86,North,360,0.0,0.0,80,0.00,,,0.05,0,Wunderground v.1.15,2013-08-04 02:51:00,
2013-08-03 22:57:00,71.3,64.8,29.86,North,360,0.0,0.0,80,0.00,,,0.05,0,Wunderground v.1.15,2013-08-04 02:57:00,
2013-08-03 23:04:00,70.9,64.4,29.86,North,360,0.0,0.0,80,0.00,,,0.05,0,Wunderground v.1.15,2013-08-04 03:04:00,
2013-08-03 23:11:00,70.8,64.3,29.86,North,360,0.0,0.0,80,0.00,,,0.05,0,Wunderground v.1.15,2013-08-04 03:11:00,
2013-08-03 23:17:00,70.6,64.1,29.86,North,360,0.0,0.0,80,0.00,,,0.05,0,Wunderground v.1.15,2013-08-04 03:17:00,
2013-08-03 23:25:00,70.3,63.8,29.86,North,360,0.0,0.0,80,0.00,,,0.05,0,Wunderground v.1.15,2013-08-04 03:25:00,
2013-08-03 23:31:00,70.1,63.6,29.86,North,360,0.0,0.0,80,0.00,,,0.05,0,Wunderground v.1.15,2013-08-04 03:31:00,
2013-08-03 23:37:00,69.9,63.4,29.86,North,360,0.0,0.0,80,0.00,,,0.05,0,Wunderground v.1.15,2013-08-04 03:37:00,
2013-08-03 23:43:00,69.8,63.3,29.86,North,360,0.0,0.0,80,0.00,,,0.05,0,Wunderground v.1.15,2013-08-04 03:43:00,
2013-08-03 23:49:00,69.8,63.3,29.86,North,360,0.0,0.0,80,0.00,,,0.05,0,Wunderground v.1.15,2013-08-04 03:49:00,
2013-08-03 23:55:00,69.6,63.2,29.86,North,360,0.0,0.0,80,0.00,,,0.05,0,Wunderground v.1.15,2013-08-04 03:55:00,